"Pseudo-MPEC" for ZLB1A53

Created 2018 Jun 19 23:18:33 UT using Find_Orb

Click here for an explanation of pseudo-MPECs

 
 Astrometry: 
     ZLB1A53  C2018 06 11.38889 21 50 06.45 +13 18 00.0          20.6 GUNEOCPG96
     ZLB1A53  C2018 06 11.39413 21 50 06.76 +13 18 12.6          21.2 GUNEOCPG96
     ZLB1A53  C2018 06 11.39937 21 50 07.05 +13 18 26.1          21.1 GUNEOCPG96
     ZLB1A53  C2018 06 11.40460 21 50 07.36 +13 18 39.6          21.4 GUNEOCPG96
     ZLB1A53  C2018 06 11.43638 21 50 09.09 +13 20 00.3          21.3 GUNEOCPI52
     ZLB1A53  C2018 06 11.43921 21 50 09.25 +13 20 07.2          20.8 GUNEOCPI52
     ZLB1A53  C2018 06 11.44204 21 50 09.42 +13 20 14.5          21.2 GUNEOCPI52
     ZLB1A53  C2018 06 11.44487 21 50 09.57 +13 20 22.1          20.9 GUNEOCPI52
     ZLB1A53  C2018 06 12.37608 21 51 05.79 +13 59 17.8          20.9 GUNEOCPI52
     ZLB1A53  C2018 06 12.37939 21 51 05.91 +13 59 26.1          20.9 GUNEOCPI52
     ZLB1A53  C2018 06 12.38270 21 51 06.06 +13 59 33.9          21.6 GUNEOCPI52
     ZLB1A53  C2018 06 14.43033 21 52 59.05 +15 23 19.9          20.5 GUNEOCPI52
     ZLB1A53  C2018 06 14.43659 21 52 59.36 +15 23 35.4          20.6 GUNEOCPI52
     ZLB1A53  C2018 06 14.44010 21 52 59.49 +15 23 43.7          21.0 GUNEOCPI52
     ZLB1A53  C2018 06 14.44361 21 52 59.65 +15 23 52.2          21.8 GUNEOCPI52
     ZLB1A53 KC2018 06 19i'AstrometryZ$qoyredacted;5Y(=nwJgd^MB$7v(Ps[nG+0SukL01
     ZLB1A53 KC2018 06 19gS\RR;[Ic2sQP1$rjoILyB-GC9Wvh=A?seeSsKI.t2unc%YNEOCPL01
     ZLB1A53  C2018 06 19.41143 21 56 41.05 +18 35 48.1          21.4 GUNEOCPI52
     ZLB1A53  C2018 06 19.41392 21 56 41.15 +18 35 52.7          21.6 GUNEOCPI52
     ZLB1A53  C2018 06 19.41890 21 56 41.18 +18 36 03.8          20.4 GUNEOCPI52

Station data:
(G96) Mt. Lemmon Survey  (N32.442754 W110.788720)  US/Arizona.  Observers B.
   M. Africano, E. J. Christensen, D. C. Fuls, A. R. Gibbs, A. D. Grauer, J.
   A. Johnson, R. A. Kowalski, S. M. Larson, G. J. Leonard, R. L. Seaman, F.
   C. Shelly. 1.5-m reflector + 10K CCD.
(I52) Steward Observatory, Mt. Lemmon Station  (N32.442547 W110.788920)
   US/Arizona.  Observers B. M. Africano, E. J. Christensen, D. C. Fuls, A.
   R. Gibbs, A. D. Grauer, J. A. Johnson, R. A. Kowalski, S. M. Larson, G. J.
   Leonard, R. L. Seaman, F. C. Shelly. 1.0-m reflector + CCD.
(L01) Višnjan Observatory, Tičan  (N45.290900 E13.749300)  Croatia.  Observer
   K. Korlević. 1.0-m f/2.9 reflector + CCD.

Orbital elements:  ZLB1A53
   Perihelion 2018 May 6.303683 +/- 0.14 TT =  7:17:18 (JD 2458244.803683)
Epoch 2018 Jun 19.0 TT = JDT 2458288.5   Earth MOID: 0.1609   AutoNEOCP
M  15.84760 +/- 0.37                (J2000 ecliptic)
n   0.36267591 +/- 0.00763          Peri.    2.80363 +/- 0.13
a   1.94740778 +/- 0.0273           Node   247.07330 +/- 0.21
e   0.3970000 +/- 0.00712           Incl.   16.88988 +/- 0.14
P   2.72/992.60d           H 20.5   G  0.15   U  9.5  
q 1.17428678 +/- 0.0027    Q 2.72052879 +/- 0.0537
From 20 observations 2018 June 11-19; mean residual 0".35
Residuals in arcseconds: 
180611 G96  .16-  .36+    180611 I52  .09-  .39+    180614 I52  .29-  .02-    
180611 G96  .06+  .36-    180612 I52  .97+  .11+    180619 L01  .54+  .17+    
180611 G96  .00   .17-    180612 I52  .14+  .11+    180619 L01  .13-  .10+    
180611 G96  .25+  .04+    180612 I52  .25-  .39-    180619 I52  .24+  .54+    
180611 I52  .27-  .10+    180614 I52  .14-  .13-    180619 I52  .57+  .41-    
180611 I52  .21-  .17-    180614 I52  .18+  .19+    180619 I52  1.2-  .42-    
180611 I52  .01-  .04-    180614 I52  .27-  .02-    

Ephemerides (geocentric):
Date (UTC) HH   RA              Dec         delta   r     elong  mag " sig PA
---- -- -- --  -------------   -----------  ------ ------ -----  --- ---- ---
2018 06 19 23  21 57 00.336   +18 55 59.41  .49637 1.2541 106.9 21.4  .22 150
2018 06 20 00  21 57 01.803   +18 57 30.88  .49643 1.2542 106.9 21.4  .23 148
2018 06 20 01  21 57 03.264   +18 59 02.29  .49648 1.2543 107.0 21.4  .23 147
2018 06 20 02  21 57 04.720   +19 00 33.62  .49653 1.2545 107.0 21.4  .24 146
2018 06 20 03  21 57 06.170   +19 02 04.88  .49659 1.2546 107.0 21.4  .25 145
2018 06 20 04  21 57 07.615   +19 03 36.07  .49664 1.2548 107.0 21.4  .26 144
2018 06 20 05  21 57 09.055   +19 05 07.18  .49669 1.2549 107.0 21.4  .26 143
2018 06 20 06  21 57 10.490   +19 06 38.23  .49675 1.2550 107.0 21.4  .27 142
2018 06 20 07  21 57 11.919   +19 08 09.21  .49680 1.2552 107.1 21.4  .28 142
2018 06 20 08  21 57 13.343   +19 09 40.11  .49685 1.2553 107.1 21.4  .29 141
2018 06 20 09  21 57 14.762   +19 11 10.94  .49691 1.2555 107.1 21.4  .29 140
2018 06 20 10  21 57 16.175   +19 12 41.70  .49696 1.2556 107.1 21.4  .30 139
2018 06 20 11  21 57 17.583   +19 14 12.39  .49702 1.2558 107.1 21.4  .31 138
2018 06 20 12  21 57 18.986   +19 15 43.01  .49707 1.2559 107.1 21.4  .32 138
2018 06 20 13  21 57 20.384   +19 17 13.55  .49712 1.2560 107.1 21.4  .33 137
2018 06 20 14  21 57 21.776   +19 18 44.03  .49718 1.2562 107.2 21.4  .34 137
2018 06 20 15  21 57 23.163   +19 20 14.43  .49723 1.2563 107.2 21.4  .35 136
2018 06 20 16  21 57 24.544   +19 21 44.76  .49729 1.2565 107.2 21.4  .35 135
2018 06 20 17  21 57 25.920   +19 23 15.02  .49734 1.2566 107.2 21.4  .36 135
2018 06 20 18  21 57 27.291   +19 24 45.21  .49739 1.2567 107.2 21.4  .37 134
2018 06 20 19  21 57 28.657   +19 26 15.33  .49745 1.2569 107.2 21.4  .38 134
2018 06 20 20  21 57 30.017   +19 27 45.37  .49750 1.2570 107.3 21.4  .39 133
2018 06 20 21  21 57 31.372   +19 29 15.34  .49756 1.2572 107.3 21.4  .40 133
2018 06 20 22  21 57 32.722   +19 30 45.24  .49761 1.2573 107.3 21.4  .41 132
2018 06 20 23  21 57 34.067   +19 32 15.07  .49766 1.2575 107.3 21.4  .42 132
2018 06 21 00  21 57 35.406   +19 33 44.83  .49772 1.2576 107.3 21.4  .43 131
2018 06 21 01  21 57 36.739   +19 35 14.51  .49777 1.2577 107.3 21.4  .44 131
2018 06 21 02  21 57 38.068   +19 36 44.12  .49783 1.2579 107.4 21.4  .45 131
2018 06 21 03  21 57 39.391   +19 38 13.66  .49788 1.2580 107.4 21.4  .46 130
2018 06 21 04  21 57 40.709   +19 39 43.13  .49794 1.2582 107.4 21.4  .47 130
2018 06 21 05  21 57 42.022   +19 41 12.53  .49799 1.2583 107.4 21.4  .48 130
2018 06 21 06  21 57 43.329   +19 42 41.85  .49804 1.2585 107.4 21.4  .49 129
2018 06 21 07  21 57 44.631   +19 44 11.11  .49810 1.2586 107.4 21.4  .50 129
2018 06 21 08  21 57 45.927   +19 45 40.29  .49815 1.2587 107.4 21.4  .51 128
2018 06 21 09  21 57 47.219   +19 47 09.39  .49821 1.2589 107.5 21.4  .52 128
2018 06 21 10  21 57 48.505   +19 48 38.43  .49826 1.2590 107.5 21.4  .54 128
2018 06 21 11  21 57 49.786   +19 50 07.39  .49832 1.2592 107.5 21.4  .55 128
2018 06 21 12  21 57 51.061   +19 51 36.28  .49837 1.2593 107.5 21.4  .56 127
2018 06 21 13  21 57 52.331   +19 53 05.10  .49843 1.2595 107.5 21.4  .57 127
2018 06 21 14  21 57 53.596   +19 54 33.85  .49848 1.2596 107.5 21.4  .58 127
2018 06 21 15  21 57 54.855   +19 56 02.52  .49854 1.2597 107.6 21.4  .59 126
2018 06 21 16  21 57 56.110   +19 57 31.13  .49859 1.2599 107.6 21.4  .60 126
2018 06 21 17  21 57 57.359   +19 58 59.65  .49865 1.2600 107.6 21.4  .62 126
2018 06 21 18  21 57 58.602   +20 00 28.11  .49870 1.2602 107.6 21.4  .63 126
2018 06 21 19  21 57 59.840   +20 01 56.50  .49876 1.2603 107.6 21.4  .64 125
2018 06 21 20  21 58 01.073   +20 03 24.81  .49881 1.2605 107.6 21.4  .65 125
2018 06 21 21  21 58 02.301   +20 04 53.05  .49887 1.2606 107.7 21.4  .66 125
2018 06 21 22  21 58 03.523   +20 06 21.21  .49892 1.2608 107.7 21.4  .68 125